This demonstration page uses our WeatherBlox Daily Observations layout. Learn more.

Left ArrowRight Arrow

Hourly Observations for June 26, 2021

Temp ( °F °C ) Dew Point ( °F °C ) Humidity (%) Winds ( mph kmh ) Pressure ( in mb ) Visibility ( mi km ) Precip ( " mm )
12:53 am 00:53 Clear 84 28.9 64 17.8 51 51 SSE 18 30 29.62 1003 10 16 0.00 0.00
1:53 am 01:53 Clear 83 28.3 65 18.3 55 55 SSE 17 28 29.61 1003 10 16 0.00 0.00
2:53 am 02:53 Clear 82 27.8 65 18.3 56 56 SSE 17 28 29.60 1002 10 16 0.00 0.00
3:53 am 03:53 Clear 81 27.2 64 17.8 57 57 SSE 13 20 29.60 1002 10 16 0.00 0.00
4:53 am 04:53 Clear 80 26.7 63 17.2 56 56 SE 14 22 29.60 1002 10 16 0.00 0.00
5:53 am 05:53 Clear 79 26.1 62 16.7 56 56 SE 15 24 29.60 1002 10 16 0.00 0.00
6:53 am 06:53 Sunny 77 25 61 16.1 58 58 SE 15 24 29.62 1003 10 16 0.00 0.00
7:53 am 07:53 Sunny 78 25.6 63 17.2 60 60 SE 15 24 29.64 1004 10 16 0.00 0.00
8:53 am 08:53 Sunny 81 27.2 64 17.8 57 57 S 15 24 29.65 1004 10 16 0.00 0.00
9:53 am 09:53 Sunny 85 29.4 62 16.7 46 46 W 7 11 29.66 1004 10 16 0.00 0.00
10:53 am 10:53 Sunny 88 31.1 62 16.7 42 42 NNW 7 11 29.65 1004 10 16 0.00 0.00
11:53 am 11:53 Sunny 92 33.3 58 14.4 32 32 WNW 8 13 29.65 1004 10 16 0.00 0.00
12:53 pm 12:53 Sunny 96 35.6 60 15.6 30 30 undefined N/A 29.64 1004 10 16 0.00 0.00
1:53 pm 13:53 Sunny 99 37.2 58 14.4 26 26 VRB 3 6 29.62 1003 10 16 0.00 0.00
2:53 pm 14:53 Sunny 101 38.3 53 11.7 20 20 VRB 3 6 29.60 1002 10 16 0.00 0.00
4:53 pm 16:53 Sunny 102 38.9 48 8.9 16 16 VRB 3 6 29.56 1001 10 16 0.00 0.00
5:53 pm 17:53 Sunny 104 40 49 9.4 16 16 NW 12 19 29.54 1000 10 16 0.00 0.00
6:53 pm 18:53 Sunny 101 38.3 50 10 18 18 Calm 29.53 1000 10 16 0.00 0.00
7:53 pm 19:53 Sunny 94 34.4 61 16.1 33 33 E 24 39 29.54 1001 10 16 0.00 0.00
8:49 pm 20:49 Partly Cloudy with Thunderstorms 84 29 64 18 51 51 ESE 37 59 29.56 1001 3 5 0.00 0.00
8:53 pm 20:53 Partly Cloudy with Thunderstorms 83 28.3 63 17.2 51 51 ESE 36 57 29.62 1003 3 4 0.00 0.00
9:02 pm 21:02 Partly Cloudy with Nearby Thunderstorms 81 27.2 66 18.9 61 61 SE 28 44 29.59 1002 6 10 0.00 0.00
9:15 pm 21:15 Mostly Clear 78 25.6 66 18.9 67 67 ESE 23 37 29.60 1002 10 16 0.00 0.00
9:53 pm 21:53 Mostly Clear 78 25.6 63 17.2 60 60 SE 29 46 29.61 1003 10 16 0.00 0.00
10:44 pm 22:44 Clear 78 25.6 65 18.3 64 64 ENE 23 37 29.66 1004 10 16 0.00 0.00
10:53 pm 22:53 Clear 78 25.6 65 18.3 64 64 E 21 33 29.66 1005 10 16 0.00 0.00
11:53 pm 23:53 Clear 77 25 66 18.9 69 69 ENE 22 35 29.70 1006 10 16 0.00 0.00

Powered by AerisWeather